Regional Weather Roundup
Issued by NWS Jackson, KY

Home | Current Version | Previous Version | Graphics & Text | Print | Product List | Glossary On
Versions: 1 2 3 4 5 6 7 8 9 10 11 12 13 14 15 16 17 18 19 20 21 22 23 24 25 26 27 28 29 30 31 32 33 34 35 36 37 38 39 40 41 42 43 44 45 46 47 48 49 50
000
ASUS43 KJKL 250519
RWRJKL

EAST KENTUCKY HOURLY WEATHER ROUNDUP
NATIONAL WEATHER SERVICE JACKSON KY
1200 AM EST SUN JAN 25 2015

NOTE: "FAIR" INDICATES FEW OR NO CLOUDS BELOW 12,000 FEET WITH
NO SIGNIFICANT WEATHER AND/OR OBSTRUCTIONS TO VISIBILITY.

* THESE REPORTS ARE NOT UNDER NWS QUALITY CONTROL AND MAY NOT
  REPORT WEATHER SUCH AS PRECIPITATION AND FOG.

KYZ079-080-083-085-087-088-110-112-115-119-120-250600
...EASTERN KENTUCKY...

CITY           SKY/WX    TMP DP  RH WIND       PRES   REMARKS
JACKSON        CLEAR     33  30  88 SW6       29.84F WCI  28
LONDON         CLEAR     30  25  81 CALM      29.87S
SOMERSET*      CLEAR     32  32 100 CALM      29.89S
MONTICELLO*    CLEAR     36  31  82 SW8       29.91S WCI  30
MIDDLESBORO*   CLEAR     28  27  97 CALM      29.91S
HARLAN APT*    CLEAR     32  30  93 E9        29.88S WCI  24
HAZARD APT*    CLEAR     36  32  87 SW6       29.86F WCI  31
BLACK MTN*       N/A     27  27 100 SW5         N/A  WCI  21
PIKEVILLE APT* MOCLDY    34  30  86 CALM      29.84F
BIG SANDY*     PTCLDY    34  31  89 SW3       29.85F
MOREHEAD APT*  PTCLDY    32  30  93 S5        29.84F WCI  27
ASHLAND*       MOCLDY   N/A N/A N/A CALM      29.82F
$$

KYZ035-036-041-042-044-050-067-078-099-250600
...CENTRAL KENTUCKY...

CITY           SKY/WX    TMP DP  RH WIND       PRES   REMARKS
MT STERLING*   CLEAR     32  32 100 SW8       29.84S WCI  25
FLEMING/MASON* CLOUDY    30  28  92 S9        29.82F FOG     WCI  22
DANVILLE*      CLEAR     32  32 100 S7        29.85F WCI  26
RICHMOND*      CLEAR     34  32  93 S8        29.84S WCI  27
LEXINGTON      CLEAR     33  28  81 S9        29.83R WCI  25
FRANKFORT      CLEAR     32  28  85 S7        29.81S WCI  26
$$

KYZ091>093-OHZ055-061-077-WVZ005-015-034-035-042-250600
...SOUTHERN OHIO/WEST VIRGINIA...

CITY           SKY/WX    TMP DP  RH WIND       PRES   REMARKS
COVINGTON      MOCLDY    33  28  81 S8        29.77F WCI  26
COLUMBUS       CLOUDY    35  28  75 SW8       29.76R WCI  29
DAYTON         CLOUDY    36  30  79 SW10      29.75S WCI  28
WILMINGTON     CLOUDY    33  28  81 SW9       29.77R WCI  25
HUNTINGTON     PTCLDY    32  30  92 S7        29.83F WCI  26
CHARLESTON     MOCLDY    34  30  85 SW7       29.84S WCI  28
PINEVILLE*     CLOUDY    36  33  89 MISG      29.89S
BECKLEY        CLOUDY    30  26  85 W10       29.79R WCI  21
BLUEFIELD      CLOUDY    31  26  82 W10G24    29.79R WCI  22
$$

VAZ002-007-008-TNZ017-027-036-066-071-250600
...SOUTHWEST VIRGINIA/EAST TENNESSEE...

CITY           SKY/WX    TMP DP  RH WIND       PRES   REMARKS
WISE*          CLOUDY    32  28  86 SW5       29.84S WCI  27
JONESVILLE*    CLEAR     28  27  93 CALM      29.92S
ABINGDON*      CLOUDY    34  30  83 W5        29.88R WCI  30
BRISTOL        CLOUDY    35  27  72 SW7       29.91R WCI  29
KNOXVILLE      CLEAR     34  27  75 SW9       29.93S WCI  27
OAK RIDGE      CLEAR     32  28  85 CALM      29.94F
CROSSVILLE     CLEAR     33  27  78 SW6       29.91R WCI  28
NASHVILLE      CLEAR     37  30  75 S7        29.90S WCI  32
$$

...KEY TO REMARKS...
VSB - VISIBILITY IN MILES
WCI - WIND CHILL INDEX
HX  - HEAT INDEX

$$



USA.gov is the U.S. government's official web portal to all federal, state and local government web resources and services.